Location: De Har
(53.3413°N, 6.6858°E)
Time: 20:14:07
(UTC+00:00)

Cosmos 909 Rocket - Pass Details

Date: 22 April 2026
Orbit: 990 x 2089 km, 65.9° (Epoch: 21 May)

Event Time Altitude Azimuth Distance (km) Brightness Sun altitude
Exits shadow 01:38:04 30° 232° (SW) 1,689 4.7 -19.2°
Maximum altitude 01:41:21 78° 315° (NW) 1,020 4.1 -18.9°
Drops below altitude 10° 01:47:52 10° 42° (NE) 2,870 7.7 -18.4°
Sets 01:50:37 0° 44° (NE) 3,911 8.8 -18.1°
